Location: Unspecified
(0.0000°N, 0.0000°E)
Time: 00:39:47
(UTC+00:00)

Transit 2A Rocket - Pass Details

Date: 14 December 2018
Orbit: 586 x 918 km, 66.7° (Epoch: 17 January)

Event Time Altitude Azimuth Distance (km) Brightness Sun altitude
Rises 20:12:22 0° 300° (WNW) 3,543 8.8 -31.3°
Reaches altitude 10° 20:16:52 10° 270° (W) 2,593 8.4 -32.3°
Maximum altitude 20:18:53 12° 250° (WSW) 2,459 8.4 -32.7°
Drops below altitude 10° 20:20:53 10° 230° (SW) 2,564 8.5 -33.1°
Sets 20:25:18 0° 199° (SSW) 3,450 9.0 -34.1°
